Weather History for Abilene, TX

Change the Weather History Date:

Friday, October 26, 2012

  Actual Average Record
Temperature  
Mean Temperature 47 °F 63 °F  
Max Temperature 54 °F 74 °F 90 °F (1950)
Min Temperature 39 °F 51 °F 30 °F (1898)
Degree Days  
Heating Degree Days 18 5  
Month to date heating degree days 78 66  
Since 1 July heating degree days 84 77  
Cooling Degree Days 0 2  
Month to date cooling degree days 123 107  
Year to date cooling degree days 2996 2378  
Moisture  
Dew Point 31 °F    
Average Humidity 53    
Maximum Humidity 70    
Minimum Humidity 35    
Precipitation  
Precipitation 0.00 in 0.09 in 2.45 in (1899)
Month to date precipitation 0.73 2.57  
Year to date precipitation 22.87 21.77  
Sea Level Pressure  
Sea Level Pressure 30.28 in    
Wind  
Wind Speed 14 mph (North)    
Max Wind Speed 24 mph    
Max Gust Speed 31 mph    
Visibility 10 miles    
Events      
T = Trace of Precipitation, MM = Missing Value Source: NWS Daily Summary

Daily Weather History Graph

Daily Weather History Graph

Search for Another Location

Airport:

Trip Planner

Search our weather history database for the weather conditions in past years. The results will help you decide how hot, cold, wet, or windy it might be!

Date:

Astronomy

Oct. 26, 2012 Rise Set
Actual Time 7:51 AM CDT 6:53 PM CDT
Civil Twilight 7:26 AM CDT 7:18 PM CDT
Nautical Twilight 6:57 AM CDT 7:47 PM CDT
Astronomical Twilight 6:28 AM CDT 8:15 PM CDT
Moon 5:03 PM CDT (10/26) 4:57 AM CDT (10/26)
Length of Visible Light 11h 52m
Length of Day
11h 01m
Waxing Gibbous, 91% of the Moon is Illuminated
Oct 26
Waxing Gibbous
Oct 29
Full
Nov 6
Last Quarter
Nov 13
New
Nov 20
First Quarter

Hourly Weather History & Observations

Time (CDT) Temp. Windchill Dew Point Humidity Pressure Visibility Wind Dir Wind Speed Gust Speed Precip Events Conditions
1:52 AM 48.9 °F - 36.0 °F 61% 30.16 in 10.0 mi NNE 9.2 mph 21.9 mph N/A   Overcast
2:52 AM 46.9 °F - 35.1 °F 63% 30.17 in 10.0 mi NNE 16.1 mph 25.3 mph N/A   Overcast
3:52 AM 46.9 °F - 35.1 °F 63% 30.18 in 10.0 mi NNE 15.0 mph - N/A   Overcast
4:52 AM 46.0 °F 39.9 °F 35.1 °F 66% 30.18 in 10.0 mi North 13.8 mph 23.0 mph N/A   Overcast
5:52 AM 45.0 °F 37.4 °F 35.1 °F 68% 30.19 in 10.0 mi North 18.4 mph - N/A   Overcast
6:52 AM 44.1 °F 36.8 °F 35.1 °F 71% 30.23 in 10.0 mi North 16.1 mph 21.9 mph N/A   Overcast
7:52 AM 43.0 °F 36.0 °F 34.0 °F 71% 30.25 in 10.0 mi North 13.8 mph 21.9 mph N/A   Overcast
8:52 AM 43.0 °F 35.4 °F 34.0 °F 71% 30.28 in 10.0 mi North 16.1 mph 23.0 mph N/A   Clear
9:52 AM 44.1 °F 35.9 °F 33.1 °F 65% 30.31 in 10.0 mi North 19.6 mph 31.1 mph N/A   Mostly Cloudy
10:52 AM 46.9 °F - 32.0 °F 56% 30.32 in 10.0 mi North 20.7 mph 26.5 mph N/A   Mostly Cloudy
11:52 AM 48.0 °F - 30.9 °F 52% 30.33 in 10.0 mi North 17.3 mph 31.1 mph N/A   Mostly Cloudy
12:52 PM 50.0 °F - 30.9 °F 48% 30.32 in 10.0 mi North 18.4 mph 24.2 mph N/A   Overcast
1:52 PM 51.1 °F - 30.9 °F 46% 30.30 in 10.0 mi North 18.4 mph 27.6 mph N/A   Mostly Cloudy
2:52 PM 53.1 °F - 30.0 °F 41% 30.28 in 10.0 mi NNE 16.1 mph 25.3 mph N/A   Partly Cloudy
3:52 PM 53.1 °F - 27.0 °F 37% 30.27 in 10.0 mi North 20.7 mph 29.9 mph N/A   Partly Cloudy
5:52 PM 52.0 °F - 26.1 °F 37% 30.27 in 10.0 mi North 17.3 mph 25.3 mph N/A   Clear
6:52 PM 50.0 °F - 26.1 °F 39% 30.29 in 10.0 mi North 16.1 mph 20.7 mph N/A   Clear
7:52 PM 48.0 °F - 27.0 °F 44% 30.33 in 10.0 mi North 9.2 mph - N/A   Clear
8:52 PM 46.0 °F 42.5 °F 26.1 °F 46% 30.34 in 10.0 mi North 6.9 mph - N/A   Clear
9:52 PM 44.1 °F 40.1 °F 27.0 °F 51% 30.36 in 10.0 mi North 6.9 mph - N/A   Clear
10:52 PM 42.1 °F 37.7 °F 27.0 °F 55% 30.36 in 10.0 mi North 6.9 mph - N/A   Clear
11:52 PM 39.9 °F 35.1 °F 27.0 °F 60% 30.36 in 10.0 mi North 6.9 mph - N/A   Clear